Location: Central Falls
(41.8900°N, 71.3929°W)
Time: 11:59:27
(UTC+00:00)

Altair - Pass Details

Date: 06 December 2023
Orbit: 1501 x 1682 km, 47.2° (Epoch: 20 February)

Event Time Altitude Azimuth Distance (km) Brightness Sun altitude
Rises 16:43:55 0° 288° (WNW) 4,752 9.9 25.6°
Reaches altitude 10° 16:47:04 10° 290° (WNW) 3,744 9.4 25.5°
Maximum altitude 16:56:29 72° 15° (NNE) 1,589 7.8 25.4°
Drops below altitude 10° 17:05:40 10° 100° (E) 3,651 9.6 25.2°
Sets 17:08:41 0° 102° (ESE) 4,629 10.1 25.2°
